Simultaneous Nadir Overpasses (SNOs) Predictions

Prediction of SNOs between GOES-17 and AQUA Satellite Orbit:

Table of predicted SNOs for the next 14.0 days since TLE Epoch: 3/27/2020
Index Date Time (GOES-17) GOES-17 Lat,Lon AQUA Lat,Lon Distance(km) Time Diff (sec)
1 03/27/2020 22:52:23 0.02,-137.22 -0.45,-139.41 249.73 80
2 03/29/2020 22:42:52 0.03,-137.21 0.18,-136.46 85.22 80
3 03/31/2020 22:30:41 0.03,-137.19 0.82,-133.50 419.37 80
4 04/01/2020 10:51:57 -0.03,-137.19 0.28,-138.66 166.81 80
5 04/03/2020 10:37:06 -0.03,-137.17 -0.36,-135.71 166.40 80
6 04/03/2020 22:58:29 0.02,-137.15 -0.79,-140.89 425.83 80
7 04/05/2020 10:24:54 -0.02,-137.13 -0.95,-132.74 499.21 80
8 04/05/2020 22:46:18 0.01,-137.11 -0.14,-137.94 93.00 80
9 04/07/2020 22:36:46 0.01,-137.08 0.44,-134.97 239.17 80
10 04/08/2020 10:58:02 -0.01,-137.08 0.64,-140.13 347.12 80
11 04/10/2020 10:45:51 -0.02,-137.04 -0.01,-137.18 16.06 80




NCC Satellite Simultaneous Nadir Overpasses (SNOs) Prediction Service
